Weather History for Rhinelander, WI

Change the Weather History Date:

Wednesday, August 7, 2013

  Actual Average Record
Temperature  
Mean Temperature 58 °F 66 °F  
Max Temperature 70 °F 79 °F 94 °F (1937)
Min Temperature 45 °F 54 °F 40 °F (1921)
Degree Days  
Heating Degree Days 7 2  
Month to date heating degree days 38 12  
Since 1 June heating degree days 296 197  
Since 1 July heating degree days 122 63  
Cooling Degree Days 0 3  
Month to date cooling degree days 2 21  
Year to date cooling degree days 188 191  
Since 1 June cooling degree days 174 179  
Growing Degree Days 8 (Base 50)    
Moisture  
Dew Point 54 °F    
Average Humidity 70    
Maximum Humidity 100    
Minimum Humidity 40    
Precipitation  
Precipitation 0.00 in 0.12 in 2.10 in (1966)
Month to date precipitation 1.36 0.76  
Year to date precipitation 22.73 18.35  
Snow  
Snow 0.00 in - 0.00 in ()
Month to date snowfall 0.0  
Since 1 June snowfall 0.0  
Since 1 July snowfall 0.0  
Snow Depth 0.00 in    
Sea Level Pressure  
Sea Level Pressure 29.89 in    
Wind  
Wind Speed 6 mph (WNW)    
Max Wind Speed 13 mph    
Max Gust Speed 20 mph    
Visibility 10 miles    
Events      
T = Trace of Precipitation, MM = Missing Value Source: NWS Daily Summary

Daily Weather History Graph

Daily Weather History Graph

Search for Another Location

Airport:

Trip Planner

Search our weather history database for the weather conditions in past years. The results will help you decide how hot, cold, wet, or windy it might be!

Date:

Astronomy

Aug. 07, 2013 Rise Set
Actual Time 5:48 AM CDT 8:17 PM CDT
Civil Twilight 5:15 AM CDT 8:50 PM CDT
Nautical Twilight 4:33 AM CDT 9:32 PM CDT
Astronomical Twilight 3:45 AM CDT 10:19 PM CDT
Moon 6:43 AM CDT (8/7) 8:17 PM CDT (8/7)
Length of Visible Light 15h 35m
Length of Day
14h 28m
New Moon, 1% of the Moon is Illuminated
Aug 7
New Moon
Aug 14
First Quarter
Aug 20
Full
Aug 28
Last Quarter
Sep 5
New

Hourly Weather History & Observations

Time (CDT) Temp. Windchill Dew Point Humidity Pressure Visibility Wind Dir Wind Speed Gust Speed Precip Events Conditions
12:53 AM 59.0 °F - 57.0 °F 93% 29.74 in 10.0 mi NW 8.1 mph - 0.05 in   Partly Cloudy
1:53 AM 59.0 °F - 57.9 °F 96% 29.78 in 10.0 mi SSW 5.8 mph - N/A   Overcast
2:04 AM 59.0 °F - 57.2 °F 94% 29.78 in 10.0 mi SW 8.1 mph - N/A   Overcast
2:18 AM 59.0 °F - 57.2 °F 94% 29.79 in 10.0 mi SW 8.1 mph - N/A   Overcast
2:53 AM 57.9 °F - 57.0 °F 97% 29.77 in 10.0 mi WSW 8.1 mph - N/A   Overcast
3:34 AM 57.2 °F - 57.2 °F 100% 29.78 in 10.0 mi WSW 8.1 mph - N/A   Overcast
3:53 AM 59.0 °F - 57.0 °F 93% 29.77 in 10.0 mi West 6.9 mph - N/A   Overcast
4:53 AM 59.0 °F - 57.9 °F 96% 29.77 in 10.0 mi West 6.9 mph - N/A   Overcast
5:53 AM 60.1 °F - 57.9 °F 93% 29.78 in 10.0 mi NW 3.5 mph - N/A   Overcast
6:29 AM 60.8 °F - 57.2 °F 88% 29.80 in 10.0 mi West 4.6 mph - N/A   Overcast
6:53 AM 61.0 °F - 57.9 °F 90% 29.80 in 10.0 mi WNW 4.6 mph - N/A   Overcast
7:28 AM 60.8 °F - 57.2 °F 88% 29.83 in 10.0 mi NNW 4.6 mph - N/A   Overcast
7:37 AM 60.8 °F - 57.2 °F 88% 29.83 in 10.0 mi NW 5.8 mph - N/A   Overcast
7:53 AM 60.1 °F - 57.0 °F 90% 29.83 in 10.0 mi NW 4.6 mph - N/A   Overcast
8:15 AM 60.8 °F - 57.2 °F 88% 29.85 in 10.0 mi WNW 5.8 mph - N/A   Overcast
8:40 AM 62.6 °F - 57.2 °F 82% 29.86 in 10.0 mi Calm Calm - N/A   Overcast
8:53 AM 63.0 °F - 57.9 °F 84% 29.85 in - Variable 6.9 mph - N/A   Unknown
9:53 AM 63.0 °F - 57.0 °F 81% 29.88 in 10.0 mi Variable 6.9 mph - N/A   Overcast
10:46 AM 62.6 °F - 55.4 °F 77% 29.89 in 10.0 mi NW 8.1 mph - N/A   Overcast
10:53 AM 64.9 °F - 55.9 °F 73% 29.89 in 10.0 mi WNW 8.1 mph - N/A   Overcast
11:09 AM 64.4 °F - 55.4 °F 73% 29.90 in 10.0 mi WNW 9.2 mph - N/A   Overcast
11:19 AM 64.4 °F - 57.2 °F 77% 29.90 in 10.0 mi WNW 8.1 mph - N/A   Overcast
11:53 AM 64.9 °F - 57.0 °F 75% 29.91 in 10.0 mi NNW 9.2 mph - N/A   Overcast
12:06 PM 66.2 °F - 55.4 °F 68% 29.92 in 10.0 mi NNW 8.1 mph - N/A   Overcast
12:53 PM 69.1 °F - 55.0 °F 61% 29.92 in 10.0 mi West 11.5 mph 18.4 mph N/A   Mostly Cloudy
1:18 PM 64.4 °F - 53.6 °F 68% 29.94 in 10.0 mi NNW 10.4 mph 16.1 mph N/A   Mostly Cloudy
1:28 PM 66.2 °F - 53.6 °F 64% 29.94 in 10.0 mi NW 10.4 mph 18.4 mph N/A   Scattered Clouds
1:53 PM 69.1 °F - 51.1 °F 53% 29.94 in 10.0 mi Variable 6.9 mph 17.3 mph N/A   Clear
2:53 PM 66.9 °F - 48.9 °F 52% 29.94 in 10.0 mi NNW 8.1 mph 17.3 mph N/A   Partly Cloudy
3:53 PM 69.1 °F - 45.0 °F 42% 29.95 in 10.0 mi NNW 12.7 mph 18.4 mph N/A   Partly Cloudy
5:53 PM 66.9 °F - 41.0 °F 39% 29.97 in 10.0 mi North 8.1 mph - N/A   Clear
6:53 PM 66.0 °F - 43.0 °F 43% 29.98 in 10.0 mi Variable 3.5 mph - N/A   Clear
7:53 PM 61.0 °F - 50.0 °F 67% 29.99 in 10.0 mi Calm Calm - N/A   Clear
8:53 PM 53.1 °F - 48.0 °F 83% 30.01 in 10.0 mi Calm Calm - N/A   Clear
9:53 PM 48.9 °F - 46.0 °F 90% 30.04 in 10.0 mi Calm Calm - N/A   Clear
10:53 PM 48.0 °F - 46.0 °F 93% 30.05 in 10.0 mi West 3.5 mph - N/A   Clear
11:53 PM 46.0 °F 44.8 °F 45.0 °F 96% 30.06 in 2.0 mi West 3.5 mph - N/A   Clear
11:56 PM 46.4 °F - 44.6 °F 93% 30.05 in 0.8 mi Calm Calm - N/A   Clear